Location: Barton Flats Campground
(34.1722°N, 116.8753°W)
Time: 19:42:43
(UTC+00:00)

Cosmos 1953 Rocket - Pass Details

Date: 08 August 2020
Orbit: 603 x 636 km, 82.5° (Epoch: 01 October)

Event Time Altitude Azimuth Distance (km) Brightness Sun altitude
Rises 12:21:07 0° 348° (NNW) 2,938 7.2 -9.0°
Reaches altitude 10° 12:23:23 10° 344° (NNW) 2,025 6.3 -8.6°
Maximum altitude 12:27:47 55° 267° (W) 760 3.7 -7.8°
Drops below altitude 10° 12:32:07 10° 189° (S) 2,000 5.9 -7.0°
Sets 12:34:22 0° 185° (S) 2,898 6.7 -6.5°
